Weather History for Peru, IL

Change the Weather History Date:

Monday, January 6, 2014

  Actual Average Record
Temperature  
Mean Temperature -10 °F -  
Max Temperature -6 °F 29 °F 64 °F (2008)
Min Temperature -14 °F 14 °F -14 °F (1988)
Degree Days  
Heating Degree Days 75    
Moisture  
Dew Point -18 °F    
Average Humidity 67    
Maximum Humidity 72    
Minimum Humidity 63    
Precipitation  
Precipitation 0.00 in - - ()
Sea Level Pressure  
Sea Level Pressure 30.26 in    
Wind  
Wind Speed 20 mph (West)    
Max Wind Speed 28 mph    
Max Gust Speed 34 mph    
Visibility 6 miles    
Events      
Averages and records for this station are not official NWS values.
T = Trace of Precipitation, MM = Missing Value Source: NWS Daily Summary

Daily Weather History Graph

Daily Weather History Graph

Search for Another Location

Airport:

Trip Planner

Search our weather history database for the weather conditions in past years. The results will help you decide how hot, cold, wet, or windy it might be!

Date:

Astronomy

Jan. 06, 2014 Rise Set
Actual Time 7:22 AM CST 4:42 PM CST
Civil Twilight 6:51 AM CST 5:13 PM CST
Nautical Twilight 6:17 AM CST 5:48 PM CST
Astronomical Twilight 5:43 AM CST 6:21 PM CST
Moon 10:33 AM CST (1/6) 11:20 PM CST (1/6)
Length of Visible Light 10h 21m
Length of Day
9h 19m
Waxing Crescent, 35% of the Moon is Illuminated
Jan 6
Waxing Crescent
Jan 7
First Quarter
Jan 15
Full
Jan 23
Last Quarter
Jan 30
New

Hourly Weather History & Observations

Time (CST) Temp. Windchill Dew Point Humidity Pressure Visibility Wind Dir Wind Speed Gust Speed Precip Events Conditions
12:15 AM -6.0 °F -31.2 °F -13.2 °F 71% 30.16 in 3.0 mi WNW 23.0 mph 29.9 mph N/A   Haze
12:35 AM -6.2 °F -33.3 °F -13.2 °F 72% 30.16 in 2.5 mi WNW 27.6 mph 33.4 mph N/A   Haze
12:55 AM -7.2 °F -34.4 °F -14.8 °F 70% 30.17 in 2.5 mi WNW 26.5 mph 33.4 mph N/A   Haze
1:15 AM -8.0 °F -32.2 °F -15.3 °F 70% 30.18 in 3.0 mi WNW 19.6 mph 28.8 mph N/A   Haze
1:35 AM -8.9 °F -35.1 °F -16.4 °F 69% 30.18 in 2.5 mi WNW 23.0 mph 32.2 mph N/A   Haze
1:55 AM -9.8 °F -35.7 °F -17.5 °F 69% 30.20 in 3.0 mi WNW 21.9 mph 27.6 mph N/A   Haze
2:15 AM -10.3 °F -37.5 °F -18.4 °F 67% 30.20 in 3.0 mi WNW 24.2 mph 29.9 mph N/A   Haze
2:35 AM -10.5 °F -33.5 °F -18.2 °F 69% 30.21 in 4.0 mi WNW 16.1 mph 27.6 mph N/A   Haze
3:15 AM -11.4 °F -36.7 °F -18.4 °F 71% 30.21 in 4.0 mi WNW 19.6 mph 26.5 mph N/A   Haze
3:35 AM -11.6 °F -37.5 °F -18.8 °F 70% 30.21 in 2.5 mi WNW 20.7 mph 27.6 mph N/A   Haze
3:55 AM -12.1 °F -37.6 °F -19.3 °F 70% 30.22 in 3.0 mi WNW 19.6 mph 28.8 mph N/A   Haze
4:15 AM -12.3 °F -35.8 °F -19.8 °F 69% 30.22 in 4.0 mi WNW 16.1 mph 27.6 mph N/A   Haze
4:35 AM -12.6 °F -38.3 °F -20.2 °F 69% 30.22 in 4.0 mi WNW 19.6 mph 25.3 mph N/A   Haze
4:55 AM -12.6 °F -37.0 °F -20.4 °F 68% 30.23 in 5.0 mi WNW 17.3 mph 25.3 mph N/A   Haze
5:15 AM -13.0 °F -40.6 °F -20.7 °F 68% 30.23 in 4.0 mi WNW 23.0 mph 26.5 mph N/A   Haze
5:35 AM -13.0 °F -36.8 °F -21.1 °F 67% 30.24 in 4.0 mi WNW 16.1 mph 26.5 mph N/A   Haze
5:55 AM -13.2 °F -37.0 °F -21.6 °F 66% 30.25 in 7.0 mi West 16.1 mph 25.3 mph N/A   Scattered Clouds
6:15 AM -13.4 °F -40.5 °F -21.6 °F 67% 30.25 in 5.0 mi WNW 21.9 mph 26.5 mph N/A   Haze
6:35 AM -13.9 °F -36.3 °F -22.0 °F 67% 30.26 in 5.0 mi WNW 13.8 mph 24.2 mph N/A   Haze
6:55 AM -14.1 °F -38.9 °F -22.0 °F 68% 30.25 in 7.0 mi WNW 17.3 mph 24.2 mph N/A   Clear
7:15 AM -14.1 °F -37.4 °F -22.0 °F 68% 30.26 in 7.0 mi WNW 15.0 mph - N/A   Scattered Clouds
7:35 AM -14.1 °F -40.2 °F -22.5 °F 66% 30.26 in 3.0 mi WNW 19.6 mph 26.5 mph N/A   Haze
7:55 AM -14.1 °F -36.6 °F -22.5 °F 66% 30.27 in 7.0 mi WNW 13.8 mph 23.0 mph N/A   Scattered Clouds
8:15 AM -13.9 °F -38.7 °F -22.0 °F 67% 30.28 in 5.0 mi WNW 17.3 mph 25.3 mph N/A   Haze
8:35 AM -13.5 °F -37.5 °F -22.4 °F 65% 30.28 in 5.0 mi WNW 16.1 mph 28.8 mph N/A   Haze
8:55 AM -13.2 °F -39.0 °F -21.8 °F 65% 30.28 in 3.0 mi West 19.6 mph 25.3 mph N/A   Haze
9:15 AM -13.0 °F -38.8 °F -21.5 °F 66% 30.29 in 3.0 mi WNW 19.6 mph 27.6 mph N/A   Haze
9:35 AM -12.6 °F -38.9 °F -21.5 °F 65% 30.29 in 3.0 mi WNW 20.7 mph 25.3 mph N/A   Haze
9:55 AM -12.3 °F -38.5 °F -21.1 °F 65% 30.29 in 3.0 mi West 20.7 mph 29.9 mph N/A   Haze
10:15 AM -12.1 °F -37.0 °F -21.3 °F 64% 30.29 in 2.5 mi WNW 18.4 mph 28.8 mph N/A   Haze
10:35 AM -11.9 °F -36.1 °F -21.1 °F 64% 30.28 in 4.0 mi West 17.3 mph 25.3 mph N/A   Haze
10:55 AM -11.4 °F -38.9 °F -20.6 °F 64% 30.28 in 5.0 mi West 24.2 mph 29.9 mph N/A   Haze
11:15 AM -11.2 °F -37.6 °F -20.2 °F 64% 30.27 in 4.0 mi West 21.9 mph 29.9 mph N/A   Haze
11:35 AM -10.7 °F -36.9 °F -20.0 °F 63% 30.27 in 3.0 mi West 21.9 mph 33.4 mph N/A   Haze
11:55 AM -10.7 °F -35.1 °F -19.8 °F 64% 30.27 in 3.0 mi West 18.4 mph 29.9 mph N/A   Haze
12:15 PM -10.1 °F -35.6 °F -19.5 °F 63% 30.26 in 2.0 mi West 20.7 mph 31.1 mph N/A   Haze
12:35 PM -9.6 °F -36.0 °F -18.4 °F 65% 30.25 in 1.8 mi West 23.0 mph 31.1 mph N/A   Haze
12:55 PM -9.4 °F -35.8 °F -18.6 °F 64% 30.25 in 1.5 mi West 23.0 mph 31.1 mph N/A   Haze
1:15 PM -8.7 °F -31.2 °F -17.5 °F 65% 30.26 in 3.0 mi WNW 16.1 mph 28.8 mph N/A   Haze
1:35 PM -8.7 °F -32.5 °F -17.0 °F 67% 30.26 in 4.0 mi West 18.4 mph 25.3 mph N/A   Haze
1:55 PM -8.7 °F -35.8 °F -17.1 °F 66% 30.26 in 1.5 mi West 25.3 mph 33.4 mph N/A   Haze
2:15 PM -8.5 °F -32.9 °F -17.0 °F 67% 30.27 in 1.5 mi West 19.6 mph 34.5 mph N/A   Haze
2:35 PM -8.3 °F -31.4 °F -16.8 °F 67% 30.27 in 1.5 mi West 17.3 mph 31.1 mph N/A   Haze
2:55 PM -8.0 °F -33.3 °F -16.6 °F 66% 30.28 in 3.0 mi West 21.9 mph 28.8 mph N/A   Haze
3:15 PM -7.8 °F -32.0 °F -16.8 °F 65% 30.29 in 3.0 mi West 19.6 mph 31.1 mph N/A   Haze
3:35 PM -7.2 °F -32.4 °F -16.4 °F 64% 30.29 in 4.0 mi West 21.9 mph 28.8 mph N/A   Haze
3:55 PM -7.6 °F -33.4 °F -16.4 °F 65% 30.29 in 7.0 mi West 23.0 mph 27.6 mph N/A   Scattered Clouds
4:15 PM -7.8 °F -30.7 °F -15.3 °F 70% 30.29 in 5.0 mi West 17.3 mph 23.0 mph N/A   Haze
4:35 PM -7.8 °F -31.4 °F -15.7 °F 68% 30.29 in 4.0 mi West 18.4 mph 27.6 mph N/A   Haze
4:55 PM -8.0 °F -32.8 °F -16.6 °F 66% 30.29 in 10.0 mi West 20.7 mph 24.2 mph N/A   Scattered Clouds
5:15 PM -8.1 °F -31.2 °F -16.8 °F 66% 30.30 in 10.0 mi West 17.3 mph 28.8 mph N/A   Clear
5:35 PM -8.5 °F -30.2 °F -17.5 °F 65% 30.30 in 10.0 mi West 15.0 mph 19.6 mph N/A   Clear
5:55 PM -8.5 °F -29.5 °F -17.5 °F 65% 30.30 in 10.0 mi West 13.8 mph - N/A   Clear
6:15 PM -8.5 °F -30.2 °F -17.5 °F 65% 30.30 in 10.0 mi West 15.0 mph - N/A   Clear
6:35 PM -8.5 °F -31.0 °F -16.8 °F 67% 30.30 in 10.0 mi West 16.1 mph 21.9 mph N/A   Clear
6:55 PM -8.5 °F -30.2 °F -16.6 °F 68% 30.30 in 10.0 mi West 15.0 mph 19.6 mph N/A   Clear
7:15 PM -8.5 °F -29.5 °F -16.1 °F 70% 30.31 in 10.0 mi West 13.8 mph - N/A   Clear
7:35 PM -8.0 °F -28.0 °F -15.9 °F 68% 30.31 in 10.0 mi WSW 12.7 mph 21.9 mph N/A   Clear
7:55 PM -8.0 °F -28.0 °F -15.7 °F 69% 30.31 in 10.0 mi WSW 12.7 mph - N/A   Clear
8:15 PM -8.0 °F -27.1 °F -15.9 °F 68% 30.31 in 10.0 mi WSW 11.5 mph - N/A   Clear
8:35 PM -7.6 °F -26.6 °F -15.5 °F 68% 30.30 in 10.0 mi WSW 11.5 mph - N/A   Clear
8:55 PM -7.2 °F -27.1 °F -15.0 °F 69% 30.30 in 10.0 mi WSW 12.7 mph 18.4 mph N/A   Clear
9:15 PM -7.2 °F -27.1 °F -15.3 °F 68% 30.30 in 10.0 mi WSW 12.7 mph - N/A   Scattered Clouds
9:35 PM -7.2 °F -27.1 °F -14.8 °F 70% 30.29 in 10.0 mi WSW 12.7 mph - N/A   Scattered Clouds
9:55 PM -7.2 °F -28.6 °F -14.8 °F 70% 30.29 in 10.0 mi West 15.0 mph - N/A   Clear
10:15 PM -7.2 °F -28.6 °F -14.8 °F 70% 30.28 in 10.0 mi WSW 15.0 mph - N/A   Clear
10:35 PM -7.2 °F -27.1 °F -14.8 °F 70% 30.28 in 10.0 mi WSW 12.7 mph - N/A   Clear
10:55 PM -7.2 °F -28.6 °F -14.8 °F 70% 30.28 in 10.0 mi WSW 15.0 mph - N/A   Clear
11:15 PM -7.2 °F -27.1 °F -14.6 °F 70% 30.28 in 10.0 mi WSW 12.7 mph - N/A   Clear
11:35 PM -7.2 °F -27.1 °F -14.3 °F 71% 30.28 in 10.0 mi WSW 12.7 mph 17.3 mph N/A   Clear
11:55 PM -7.2 °F -25.2 °F -14.3 °F 71% 30.28 in 10.0 mi WSW 10.4 mph - N/A   Clear